Location: ????????
(55.0808°N, 38.5463°E)
Time: 01:26:03
(UTC+00:00)

Nimbus 3 Rocket - Pass Details

Date: 21 September 2024
Orbit: 1072 x 1131 km, 99.9° (Epoch: 03 October)

Event Time Altitude Azimuth Distance (km) Brightness Sun altitude
Rises 23:06:07 0° 17° (NNE) 3,920 9.2 -30.5°
Reaches altitude 10° 23:08:51 10° 10° (N) 2,952 8.3 -30.3°
Maximum altitude 23:14:53 38° 305° (NW) 1,588 6.0 -29.8°
Enters shadow 23:15:26 38° 294° (WNW) 1,603 6.0 -29.8°
